Location: Unspecified
(49.2170°N, 0.0000°E)
Time: 23:06:51
(UTC+00:00)

Transit 4A - Pass Details

Date: 16 June 2019
Orbit: 862 x 982 km, 66.8° (Epoch: 15 July)

Event Time Altitude Azimuth Distance (km) Brightness Sun altitude
Rises 13:27:03 0° 294° (WNW) 3,677 11.1 59.1°
Reaches altitude 10° 13:30:44 10° 315° (NW) 2,741 10.5 58.7°
Maximum altitude 13:34:40 16° 353° (N) 2,305 10.0 58.2°
Drops below altitude 10° 13:38:36 10° 31° (NNE) 2,745 10.2 57.8°
Sets 13:42:18 0° 52° (NE) 3,685 10.7 57.3°
